Home > Weather > Bilbao > Past weeks

Flag for Spain Past Weather in Bilbao, Spain — Yesterday and Last 2 Weeks

Now
64 °F

Partly cloudy.


Feels Like: 64 °F
Forecast: 58 / 76 °F
Wind: 1 mph from North

Location: Bilbao / Sondica

Current Time: Jul 2, 2016 at 6:06:17 AM

Latest Report: Jul 2, 2016 at 5:30 AM


Visibility: 6 mi

Pressure: 30.18 "Hg

Humidity: 94%

Dew Point: 63 °F

Location of BilbaoLocation

Past Weather in Bilbao — Graph

°F

Bilbao Temperature Yesterday

Maximum temperature yesterday: 75 °F (at 2:30 PM)
Minimum temperature yesterday: 59 °F (at 5:00 AM)
Average temperature yesterday: 68 °F

High & Low Weather Summary for the Past Weeks

 TemperatureHumidityPressure
High90 °F (Jun 22, 11:00 AM)100% (Jun 18, 5:00 AM)30.45 "Hg (Jun 18, 5:00 AM)
Low54 °F (Jun 20, 5:00 AM)31% (Jun 21, 1:30 PM)29.92 "Hg (Jun 17, 5:00 AM)
Average67 °F76%30.17 "Hg
* Reported Jun 17 5:00 AM — Jul 2 5:00 AM, Bilbao, Weather by CustomWeather, © 2016

Note: Actual official high and low records may vary slightly from our data, if they occured in-between our weather recording intervals... More about our weather records

Advertising

Bilbao Weather History for the Previous 24 Hours

Scroll right to see more
 ConditionsComfort  
Time TempWeatherWind HumidityBarometerVisibility
5:00 AM
Sat, Jul 2
64 °FPassing clouds.No wind94%30.18 "HgN/A
1:00 AM64 °FPartly cloudy.No wind100%30.21 "HgN/A
12:30 AM66 °FPartly cloudy.No wind94%30.21 "HgN/A
12:00 AM66 °FPartly cloudy.No wind94%30.18 "HgN/A
11:30 PM
Fri, Jul 1
66 °FPartly cloudy.No wind94%30.18 "HgN/A
11:00 PM66 °FPartly cloudy.No wind94%30.18 "HgN/A
10:30 PM66 °FBroken clouds.1 mph94%30.18 "HgN/A
10:00 PM64 °FBroken clouds.6 mph100%30.18 "HgN/A
9:30 PM66 °FFog.6 mph94%30.15 "Hg2 mi
9:00 PM66 °FLight rain. Fog.6 mph94%30.15 "Hg2 mi
8:30 PM66 °FFog.1 mph94%30.15 "Hg3 mi
8:00 PM68 °FDrizzle. Broken clouds.5 mph88%30.15 "Hg3 mi
7:30 PM70 °FBroken clouds.9 mph78%30.12 "HgN/A
7:00 PM70 °FBroken clouds.9 mph78%30.12 "HgN/A
6:30 PM70 °FBroken clouds.10 mph78%30.12 "HgN/A
6:00 PM72 °FPartly sunny.12 mph78%30.12 "HgN/A
5:30 PM73 °FPartly sunny.10 mph69%30.12 "HgN/A
5:00 PM75 °FPartly sunny.8 mph65%30.12 "HgN/A
4:30 PM75 °FPartly sunny.12 mph61%30.12 "HgN/A
4:00 PM75 °FPartly sunny.6 mph57%30.12 "HgN/A
3:30 PM75 °FPartly sunny.No wind61%30.12 "HgN/A
3:00 PM75 °FPartly sunny.1 mph61%30.12 "HgN/A
2:30 PM75 °FPartly sunny.No wind65%30.12 "HgN/A
2:00 PM72 °FPartly sunny.2 mph73%30.12 "HgN/A
1:30 PM72 °FPartly sunny.3 mph73%30.12 "HgN/A
1:00 PM72 °FPartly sunny.6 mph69%30.12 "HgN/A
12:30 PM70 °FPartly sunny.3 mph73%30.12 "HgN/A
12:00 PM70 °FPartly sunny.6 mph73%30.12 "HgN/A
11:30 AM70 °FPartly sunny.6 mph73%30.12 "HgN/A
11:00 AM72 °FPartly sunny.2 mph69%30.12 "HgN/A
10:30 AM72 °FScattered clouds.No wind69%30.12 "HgN/A
10:00 AM70 °FPassing clouds.No wind73%30.12 "HgN/A
9:30 AM68 °FPassing clouds.No wind83%30.12 "HgN/A
9:00 AM66 °FPassing clouds.1 mph88%30.12 "HgN/A
8:30 AM63 °FScattered clouds.1 mph94%30.12 "HgN/A
8:00 AM63 °FBroken clouds.No wind94%30.12 "HgN/A
7:30 AM61 °FPartly cloudy.No wind94%30.12 "HgN/A
7:00 AM61 °FPartly cloudy.1 mph94%30.09 "HgN/A
6:30 AM61 °FPartly cloudy.No wind94%30.09 "HgN/A
6:00 AM59 °FPassing clouds.1 mph100%30.09 "HgN/A
Weather by CustomWeather, © 2016

See weather overviewHow to use our weather pages